Location: Arcizac
(43.0933°N, 0.0112°E)
Time: 12:45:52
(UTC+00:00)

STARLINK-80 - Pass Details

Date: 14 December 2019
Orbit: 489 x 498 km, 53.0° (Epoch: 18 January)

Event Time Altitude Azimuth Distance (km) Brightness Sun altitude
Rises 18:36:23 0° 246° (WSW) 2,553 8.4 -23.0°
Reaches altitude 10° 18:38:35 10° 252° (WSW) 1,676 7.2 -23.4°
Enters shadow 18:41:57 50° 307° (NW) 631 4.1 -24.0°
